{"data":{"norad_id":60599,"intl_designator":"2024-150S","name":"STARLINK-32165","alt_names":[],"object_type":"PAYLOAD","status":"ACTIVE","operator":null,"country":"US","launch_date":"2024-08-20","launch_site_code":"AFETR","launch_vehicle":null,"mission":null,"orbit_class":"UNKNOWN","rcs_meters":null,"size_class":null,"mass_kg":null,"dimensions":null,"purposes":["comms"],"wikipedia_slug":null,"has_3d_model":false,"image_url":null,"decayed_at":null,"tle_current":{"epoch":"2026-09-21T20:27:16.506432Z","epoch_age_seconds":72023,"freshness":"FRESH","line1":"1 60599U 24150S   26264.85227438  .00000233  00000+0  18027-4 0  9999","line2":"2 60599  53.1607 115.2431 0001331  95.7114 264.4041 15.34385907118089","mean_motion":15.34385907,"eccentricity":0.0001331,"inclination_deg":53.1607,"raan_deg":115.2431,"arg_perigee_deg":95.7114,"mean_anomaly_deg":264.4041,"bstar":1.8027e-5,"rev_number":11808,"period_min":93.84862005253,"perigee_km":461.83460648245,"apogee_km":463.6556493049,"semimajor_km":6840.8821278937,"source":"CELESTRAK","updated_at":"2026-09-22T09:00:49.274957Z"}}}